Location: Home
(42.5358°N, 72.7383°W)
Time: 10:23:12
(UTC-05:00)

S-56A Canister/Altair - Pass Details

Date: 01 December 2021
Orbit: 634 x 2499 km, 38.9° (Epoch: 22 January)

Event Time Altitude Azimuth Distance (km) Brightness Sun altitude
Rises 23:02:11 0° 217° (SW) 5,380 - -68.0°
Reaches altitude 10° 23:06:39 10° 209° (SSW) 4,070 - -68.3°
Maximum altitude 23:15:01 30° 154° (SSE) 2,233 - -68.8°
Drops below altitude 10° 23:21:03 10° 96° (E) 2,886 - -69.1°
Sets 23:23:38 0° 85° (E) 3,622 - -69.2°
